Location: Ciula Mare
(45.6000°N, 22.8167°E)
Time: 13:36:11
(UTC+00:00)

Cosmos 1763 Rocket - Visible Passes

Search period start: 02 October 2023 00:00
Search period end: 12 October 2023 00:00
Orbit: 732 x 777 km, 74.0° (Epoch: 01 October)

Date Brightness Start Highest point End Pass type
(mag) Time Alt. Az. Time Alt. Az. Time Alt. Az.
02 Oct 5.0 17:41:29 10° N 17:44:57 18° NE 17:45:05 18° NE visible
02 Oct 4.9 19:22:11 10° NNW 19:25:05 34° NNW 19:25:05 34° NNW visible
03 Oct 5.5 17:02:01 10° NNE 17:03:24 11° NE 17:04:47 10° ENE visible
03 Oct 4.1 18:41:11 10° NNW 18:44:58 46° N 18:44:58 46° N visible
03 Oct 6.3 20:24:07 10° NW 20:24:57 13° WNW 20:24:57 13° WNW visible
04 Oct 4.2 18:00:23 10° N 18:04:53 35° NE 18:04:53 35° NE visible
04 Oct 5.5 19:42:16 10° NW 19:44:52 25° WNW 19:44:52 25° WNW visible
05 Oct 4.7 17:19:50 10° N 17:23:47 22° NE 17:24:51 20° ENE visible
05 Oct 4.3 19:00:54 10° NNW 19:04:51 48° WNW 19:04:51 48° WNW visible
06 Oct 5.3 16:39:46 10° NNE 16:42:19 14° NE 16:44:52 10° ENE visible
06 Oct 3.3 18:19:48 10° NNW 18:24:53 78° NE 18:24:53 78° NE visible
06 Oct 6.2 20:03:28 10° WNW 20:04:54 13° W 20:04:54 13° W visible
07 Oct 3.8 17:38:55 10° N 17:43:52 45° ENE 17:45:00 39° E visible
07 Oct 5.3 19:21:11 10° NW 19:25:01 25° W 19:25:01 25° W visible
08 Oct 4.5 16:58:15 10° N 17:02:36 27° ENE 17:05:12 18° E visible
08 Oct 4.3 18:39:39 10° NNW 18:44:34 45° WSW 18:45:13 43° SW visible
09 Oct 5.1 16:17:55 10° N 16:21:11 17° NE 16:24:28 10° E visible
09 Oct 3.4 17:58:28 10° NNW 18:03:38 82° WSW 18:05:32 40° SSE visible
09 Oct 6.3 19:43:32 10° W 19:44:32 10° W 19:45:31 10° WSW visible
10 Oct 3.5 17:17:29 10° NNW 17:22:35 56° ENE 17:26:00 21° SE visible
10 Oct 5.7 19:00:13 10° NW 19:03:54 20° W 19:06:03 16° SW visible
11 Oct 4.2 16:36:43 10° N 16:41:23 33° ENE 16:46:03 10° ESE visible
11 Oct 4.9 18:18:28 10° NW 18:23:09 36° WSW 18:26:44 16° SSW visible
